Weather Roundup
Issued by NWS Springfield, MO

Home | Current Version | Previous Version | Text Only | Print | Product List | Glossary On
Versions: 1 2 3 4 5 6 7 8 9 10 11 12 13 14 15 16 17 18 19 20 21 22 23 24 25 26 27 28 29 30 31 32 33 34 35 36 37 38 39 40 41 42 43 44 45 46 47 48 49 50
000
NZUS99 KSGF 301807
HRRSGF

HOURLY WEATHER
NATIONAL WEATHER SERVICE SPRINGFIELD MO
100 PM CDT THU OCT 30 2014

......SGF CWA......

CITY           SKY/WX    TMP DP  RH WIND       PRES   REMARKS
SPRINGFIELD    MOSUNNY   60  47  61 S15G21    30.02F
6HR MIN TEMP:  44; 6HR MAX TEMP:  60; 6HR PCP:  0.06;

JOPLIN         SUNNY     66  45  46 W18G28    30.05S
6HR MIN TEMP:  50; 6HR MAX TEMP:  66; 6HR PCP: TRACE;

WEST PLAINS    CLOUDY    59  36  42 S3        30.11F
6HR MIN TEMP:  36; 6HR MAX TEMP:  60;

ROLLA          LGT RAIN  51  43  74 S8        30.06F
6HR MIN TEMP:  40; 6HR MAX TEMP:  54; 6HR PCP: TRACE;

OSAGE BEACH    CLOUDY    52  45  76 S7        30.03F
BRANSON        PTSUNNY   63  50  63 E7        30.08F

......SURROUNDING SGF CWA......

CITY           SKY/WX    TMP DP  RH WIND       PRES   REMARKS
CHANUTE        SUNNY     70  41  34 NW15G24   30.06S
PARSONS        SUNNY     71  41  33 N13G25    30.07F
COFFEYVILLE    SUNNY     70  42  36 N15G22    30.06F
EMPORIA        SUNNY     69  36  29 N20G30    30.08F
GROVE OK       MOSUNNY   68  46  45 SW16      30.09S
ROGERS AR      SUNNY     67  43  41 W15       30.07F
SILOAM SPRINGS MOSUNNY   66  45  45 W13       30.09F
HARRISON AR    LGT RAIN  63  44  50 SW8       30.08F
NEAR YELLVILLE PTSUNNY   64  39  39 CALM      30.09F

......KANSAS AND MISSOURI......

CITY           SKY/WX    TMP DP  RH WIND       PRES   REMARKS
KANSAS CTY INT MOSUNNY   64  40  41 NW17      30.02S
DOWNTOWN KC    SUNNY     67  40  37 NW12      30.01S
COLUMBIA       LGT RAIN  48  43  82 S14       30.03F
SEDALIA        PTSUNNY   54  46  74 SW9       30.02F
ST JOSEPH      SUNNY     65  39  38 N14G29    30.03S
ST LOUIS       PTSUNNY   58  36  43 S9        30.08F
SPIRIT OF STL  CLOUDY    57  40  52 S5        30.07F
KIRKSVILLE     SUNNY     58  42  55 VRB3      30.00F
WICHITA          N/A     70  36  28 N18G28    30.15S
TOPEKA         SUNNY     68  40  35 NW23G32   30.06S
OLATHE         SUNNY     66  40  38 N15       30.01F

......TENNESSEE......

CITY           SKY/WX    TMP DP  RH WIND       PRES   REMARKS
MEMPHIS        SUNNY     67  39  35 CALM      30.13F
NASHVILLE      MOSUNNY   59  38  45 CALM      30.12F

......ARKANSAS.......

CITY           SKY/WX    TMP DP  RH WIND       PRES   REMARKS
FAYETTEVILLE   SUNNY     66  42  41 SW15      30.08F
FT SMITH       CLOUDY    68  45  43 W8        30.10F
LITTLE ROCK    MOSUNNY   71  43  36 S8        30.11F

......OKLAHOMA.......

CITY           SKY/WX    TMP DP  RH WIND       PRES   REMARKS
TULSA          MOSUNNY   71  45  39 W14       30.09S
PONCA CITY     SUNNY     73  38  27 N18G25    30.12F
MCALESTER      MOSUNNY   72  46  39 SW15      30.12F
OKLAHOMA CITY  SUNNY     73  46  38 NW13      30.15S

......IOWA............

CITY           SKY/WX    TMP DP  RH WIND       PRES   REMARKS
DES MOINES     MOSUNNY   59  37  44 VRB3      30.01F
QUAD CITIES    CLOUDY    49  37  63 SE8       30.07F

......ILLINOIS........

CITY           SKY/WX    TMP DP  RH WIND       PRES   REMARKS
QUINCY         CLOUDY    51  40  65 S12G22    30.00F
CHICAGO        CLOUDY    49  34  56 SW12G18   30.09F




USA.gov is the U.S. government's official web portal to all federal, state and local government web resources and services.